STARLINK-1245 (45215 NORAD) Tracking and Keplerian Element Data

This shows tracking and keplerian element data for the satellite.

Feedback or suggestion? Click here.




ElementValue
Catalog45215
NameSTARLINK-1245
Epoch Orbit182
Epoch Day87.91667824
Epoch Year2020
RAAN73.9385
Inclination52.9985
Eccentricity0.0001248
Argument of Perigee70.556
Mean Anonmoly12.6587
Mean Motion15.62693917
Decay Rate0.00277645
L11 45215U 20012AP 20087.91667824 .00277645 00000-0 29422-2 0 9994
L22 45215 52.9985 73.9385 0001248 70.5560 12.6587 15.62693917 1829

Live tracking and technical data element details for STARLINK-1245 (NORAD 45215). STARLINK-1245 can be tracked NOW for your location showing map with azimuth and elevation plus other details from your city location.

Track the satellite on the map from your city or location and see movement details for azimuth, elevation, latitude, longitude, range, height, and movement on the map or in text.







IsCatalogInMostPopularTable: catalog: 45215, numindb: 6
Update: records affected: 1



GetName: 45215 STARLINK-1245

Hit Count: updated at: Tue, 31 Mar 2020 13:38:53 GMT